Weather History for Asheville, NC

Change the Weather History Date:

Thursday, December 4, 2008

  Actual Average Record
Temperature  
Mean Temperature 40 °F 42 °F  
Max Temperature 52 °F 52 °F 71 °F (1956)
Min Temperature 27 °F 31 °F 15 °F (1966)
Degree Days  
Heating Degree Days 25 23  
Month to date heating degree days 118 91  
Since 1 July heating degree days 1137 958  
Cooling Degree Days 0 0  
Month to date cooling degree days 0 0  
Year to date cooling degree days 875 863  
Moisture  
Dew Point 34 °F    
Average Humidity 75    
Maximum Humidity 89    
Minimum Humidity 61    
Precipitation  
Precipitation T in 0.13 in 1.99 in (1994)
Month to date precipitation T 0.53  
Year to date precipitation 30.89 42.51  
Snow  
Snow 0.00 in 0.00 in 4.00 in (2002)
Month to date snowfall T 0.0  
Since 1 July snowfall T 0.1  
Snow Depth -    
Sea Level Pressure  
Sea Level Pressure 30.20 in    
Wind  
Wind Speed 8 mph (WNW)    
Max Wind Speed 23 mph    
Max Gust Speed 29 mph    
Visibility 10 miles    
Events Rain    
T = Trace of Precipitation, MM = Missing Value Source: NWS Daily Summary

Daily Weather History Graph

Daily Weather History Graph

Search for Another Location

Airport:

Trip Planner

Search our weather history database for the weather conditions in past years. The results will help you decide how hot, cold, wet, or windy it might be!

Date:

Astronomy

Dec. 04, 2008 Rise Set
Actual Time 7:23 AM EST 5:17 PM EST
Civil Twilight 6:55 AM EST 5:45 PM EST
Nautical Twilight 6:24 AM EST 6:16 PM EST
Astronomical Twilight 5:53 AM EST 6:47 PM EST
Moon 12:07 PM EST (12/4) 11:35 PM EST (12/4)
Length of Visible Light 10h 49m
Length of Day
9h 53m
Waxing Crescent, 38% of the Moon is Illuminated
Dec 4
Waxing Crescent
Dec 5
First Quarter
Dec 12
Full
Dec 19
Last Quarter
Dec 27
New

Hourly Weather History & Observations

Time (EST) Temp. Windchill Dew Point Humidity Pressure Visibility Wind Dir Wind Speed Gust Speed Precip Events Conditions
12:54 AM 36.0 °F 32.1 °F 27.0 °F 70% 30.22 in 10.0 mi SE 4.6 mph - N/A   Clear
1:54 AM 33.1 °F - 26.1 °F 75% 30.20 in 10.0 mi Calm Calm - N/A   Clear
2:54 AM 32.0 °F - 26.1 °F 79% 30.19 in 10.0 mi Calm Calm - N/A   Clear
3:54 AM 28.9 °F 25.2 °F 25.0 °F 85% 30.19 in 10.0 mi South 3.5 mph - N/A   Clear
4:54 AM 32.0 °F 27.5 °F 27.0 °F 82% 30.17 in 10.0 mi ESE 4.6 mph - N/A   Clear
5:54 AM 33.1 °F 28.7 °F 27.0 °F 78% 30.17 in 10.0 mi ESE 4.6 mph - N/A   Clear
6:54 AM 30.9 °F 23.5 °F 26.1 °F 82% 30.22 in 10.0 mi NNW 8.1 mph - N/A   Clear
7:54 AM 30.9 °F - 27.0 °F 85% 30.22 in 10.0 mi Calm Calm - N/A   Clear
8:54 AM 34.0 °F - 28.0 °F 79% 30.23 in 10.0 mi Calm Calm - N/A   Mostly Cloudy
9:54 AM 42.1 °F 40.2 °F 34.0 °F 73% 30.22 in 10.0 mi SE 3.5 mph - N/A   Scattered Clouds
10:54 AM 46.9 °F - 39.9 °F 77% 30.21 in 10.0 mi South 11.5 mph - N/A   Scattered Clouds
11:54 AM 50.0 °F - 41.0 °F 71% 30.18 in 10.0 mi SSW 12.7 mph 21.9 mph N/A   Mostly Cloudy
12:17 PM 48.2 °F - 41.0 °F 76% 30.16 in 10.0 mi South 9.2 mph - N/A   Overcast
12:34 PM 50.0 °F - 42.8 °F 76% 30.16 in 10.0 mi SSW 11.5 mph - N/A   Mostly Cloudy
12:54 PM 52.0 °F - 42.1 °F 69% 30.15 in 10.0 mi South 12.7 mph 17.3 mph N/A   Mostly Cloudy
1:54 PM 50.0 °F - 41.0 °F 71% 30.13 in 10.0 mi SSW 11.5 mph 17.3 mph N/A   Overcast
2:54 PM 50.0 °F - 37.9 °F 63% 30.14 in 10.0 mi South 9.2 mph - N/A   Overcast
3:54 PM 48.0 °F - 37.9 °F 68% 30.14 in 10.0 mi South 8.1 mph - 0.00 in   Overcast
4:54 PM 46.0 °F 42.5 °F 41.0 °F 83% 30.17 in 10.0 mi NNW 6.9 mph - 0.00 in Rain Light Rain
5:54 PM 43.0 °F 38.8 °F 39.9 °F 89% 30.19 in 10.0 mi NW 6.9 mph - 0.00 in Rain Light Rain
6:54 PM 43.0 °F 35.1 °F 39.9 °F 89% 30.21 in 10.0 mi North 17.3 mph 24.2 mph 0.00 in   Overcast
7:13 PM 42.8 °F 34.3 °F 39.2 °F 87% 30.19 in 7.0 mi NNW 19.6 mph 26.5 mph N/A   Overcast
7:49 PM 41.0 °F 32.2 °F 37.4 °F 87% 30.20 in 7.0 mi North 18.4 mph 25.3 mph 0.00 in   Overcast
7:54 PM 41.0 °F 33.1 °F 37.9 °F 89% 30.23 in 7.0 mi North 15.0 mph 25.3 mph 0.00 in   Overcast
8:07 PM 41.0 °F 33.1 °F 37.4 °F 87% 30.21 in 10.0 mi North 15.0 mph 23.0 mph N/A   Overcast
8:54 PM 39.9 °F 32.9 °F 35.1 °F 83% 30.23 in 10.0 mi North 11.5 mph 23.0 mph N/A   Overcast
9:54 PM 37.9 °F 28.9 °F 33.1 °F 83% 30.23 in 10.0 mi North 16.1 mph 25.3 mph N/A   Overcast
10:54 PM 35.1 °F 25.5 °F 30.0 °F 82% 30.25 in 10.0 mi NNW 15.0 mph 25.3 mph N/A   Mostly Cloudy
11:31 PM 35.6 °F 26.2 °F 30.2 °F 81% 30.24 in 10.0 mi North 15.0 mph 21.9 mph N/A   Scattered Clouds
11:54 PM 34.0 °F 25.5 °F 30.0 °F 85% 30.26 in 10.0 mi NNW 11.5 mph 17.3 mph N/A   Partly Cloudy